sat.trackr.live / text

‹ back to catalog

EUTELSAT HOTBIRD 13G

NORAD 54225 · 2022-146A

PAYLOAD ACTIVE UNKNOWN

§ Identity

Operator
Country
EUTE
Launch date
2022-11-03
Launch site
AFETR
Launch vehicle
Mass (kg)
RCS (m²)

Purposes: comms

External: N2YO · Heavens-Above · Gunter

§ Orbital elements

Epoch: 2026-09-19T17:01:58.462752Z

Period
1,436.06 min
Inclination
0.0482°
Eccentricity
0.0002083
Mean motion
1.00274177 rev/d
Perigee alt
35,777.1 km
Apogee alt
35,794.7 km
Semi-major
42,164.1 km
B*
0.0000e+0
RAAN
234.7723°
Arg perigee
299.2511°
Mean anomaly
93.1007°
Rev number
841

§ Raw data

EUTELSAT HOTBIRD 13G1 54225U 22146A   26262.70970443  .00000083  00000+0  00000+0 0  99942 54225   0.0482 234.7723 0002083 299.2511  93.1007  1.00274177  8416

JSON: /api/v1/satellites/54225 · /tle

For live sub-satellite position, see the globe view (requires WebGL).

§ Visibility from observer

Set your observer location to see the next 7 days of passes ≥ 10°. The values pass through the URL so the page stays shareable.

No JS? Fill the form by hand. The geolocation button needs JavaScript.